Regional Weather Roundup
Issued by NWS Little Rock, AR

Home | Current Version | Previous Version | Graphics & Text | Print | Product List | Glossary On
Versions: 1 2 3 4 5 6 7 8 9 10 11 12 13 14 15 16 17 18 19 20 21 22 23 24 25 26 27 28 29 30 31 32 33 34 35 36 37 38 39 40 41 42 43 44 45 46 47 48 49 50
468
ASUS44 KLZK 291905
RWRLZK

WEATHER ROUNDUP FOR ARKANSAS
NATIONAL WEATHER SERVICE LITTLE ROCK AR
200 PM CDT SUN MAY 29 2016

NOTE: "FAIR" INDICATES FEW OR NO CLOUDS BELOW 12,000 FEET WITH NO
SIGNIFICANT WEATHER AND/OR OBSTRUCTIONS TO VISIBILITY.

ARZ001-003-010-029-292000-
NORTHWEST ARKANSAS

CITY           SKY/WX    TMP DP  RH WIND       PRES   REMARKS
FAYETTEVILLE   CLOUDY    80  68  66 CALM      30.14F
FORT SMITH     CLOUDY    83  66  56 W5        30.12S HX  85
HARRISON       CLOUDY    81  62  52 W5        30.16F
BENTONVILLE    MOSUNNY   82  61  47 CALM      30.15F
ROGERS         CLOUDY    81  66  60 CALM      30.16F
SILOAM SPGS    MOSUNNY   82  61  47 CALM      30.15F
HIGHFILL       CLOUDY    83  70  64 S6        30.14F HX  87
SPRINGDALE     MOSUNNY   81  64  57 CALM      30.17F
$$

ARZ004-005-016-292000-
NORTH CENTRAL ARKANSAS

CITY           SKY/WX    TMP DP  RH WIND       PRES   REMARKS
BATESVILLE     MOSUNNY   84  70  61 CALM      30.11F HX  88
FLIPPIN        MOSUNNY  N/A N/A N/A NE6       30.10F
MTN HOME       MOSUNNY   82  63  52 VRB3      30.12F
$$

ARZ040-041-292000-
WEST CENTRAL ARKANSAS

CITY           SKY/WX    TMP DP  RH WIND       PRES   REMARKS
MENA           PTSUNNY   88  72  58 W6        30.12F HX  94
MOUNT IDA      HVY RAIN  66  62  87 CALM      30.16R VSB 1
$$

ARZ009-017-025-026-028-292000-
NORTHEAST ARKANSAS

CITY           SKY/WX    TMP DP  RH WIND       PRES   REMARKS
CORNING        LGT RAIN  84  66  54 N3        30.10F HX  86
JONESBORO      CLOUDY    84  68  58 N5        30.09F HX  87
NEWPORT        SUNNY     85  67  54 CALM      30.11F HX  87
WALNUT RIDGE   SUNNY     82  64  54 W3        30.10F
BLYTHEVILLE    MOSUNNY   86  71  60 SW6       30.09F HX  91
$$

ARZ022-023-033-042-044-292000-
CENTRAL ARKANSAS

CITY           SKY/WX    TMP DP  RH WIND       PRES   REMARKS
LITTLE ROCK    PTSUNNY   89  65  44 NW5       30.09F HX  91
N LITTLE ROCK    N/A     85  69  60 N3        30.08F HX  89
JACKSONVILLE   MOSUNNY   87  68  54 VRB3      30.09F HX  90
SEARCY         MOSUNNY   84  70  61 VRB5      30.11F HX  88
HOT SPRINGS    SUNNY     85  72  65 SW6       30.12S HX  91
RUSSELLVILLE   MOSUNNY   84  67  56 CALM      30.11F HX  86
CLINTON        FAIR      84  66  54 CALM      30.12S HX  86
$$

ARZ036-292000-
EAST ARKANSAS

CITY           SKY/WX    TMP DP  RH WIND       PRES   REMARKS
WEST MEMPHIS   MOSUNNY   85  67  54 CALM      30.08F HX  87
$$

ARZ050-053-066-070-073-292000-
SOUTHWEST ARKANSAS

CITY           SKY/WX    TMP DP  RH WIND       PRES   REMARKS
ARKADELPHIA    MOCLDY    89  74  61 VRB6      30.09F HX  97
CAMDEN         MOSUNNY   91  68  46 W3        30.09F HX  95
TEXARKANA      CLOUDY    89  71  55 VRB3      30.10F HX  95
EL DORADO      CLOUDY    87  69  54 VRB3      30.10F HX  91
DE QUEEN       PTSUNNY   86  74  67 NW3       30.08F HX  94
$$

ARZ056-057-069-292000-
SOUTHEAST ARKANSAS

CITY           SKY/WX    TMP DP  RH WIND       PRES   REMARKS
PINE BLUFF     SUNNY     86  69  56 CALM      30.10F HX  90
STUTTGART      MOSUNNY   88  66  48 N5        30.11F HX  90
MONTICELLO     MOSUNNY   90  69  50 SE3       30.09F HX  94

$$






USA.gov is the U.S. government's official web portal to all federal, state and local government web resources and services.